GW5129 Weather Reports


time (UTC)temp
F
wind
direction
speed
knots
gust
knots
rain 1hr
in
rain 24hr
in
rain mn
in
humidity
%
barometer
mb
20260505114039 65 170 0.0 3.5 0.00 0.02 0.02 68 1011.1
20260505113536 64 116 1.7 5.2 0.00 0.02 0.02 69 1011.2
20260505113032 64 246 0.0 2.6 0.00 0.02 0.02 69 1011.3
20260505112528 64 115 1.7 1.7 0.00 0.02 0.02 69 1011.1
20260505112027 64 122 0.9 3.5 0.00 0.02 0.02 69 1011.2
20260505111525 64 106 0.9 0.9 0.00 0.02 0.02 69 1011.2
20260505111022 64 126 0.0 2.6 0.00 0.02 0.02 68 1011.2
20260505110519 64 115 0.9 3.5 0.00 0.02 0.02 69 1011.1
20260505101951 64 107 0.9 2.6 0.00 0.02 0.02 70 1010.7
20260505101444 64 122 1.7 3.5 0.00 0.02 0.02 70 1010.6
20260505100940 64 121 0.9 0.9 0.00 0.02 0.02 71 1010.4
20260505100438 63 134 2.6 5.2 0.00 0.02 0.02 72 1010.3
20260505095933 63 123 0.9 1.7 0.00 0.02 0.02 72 1010.4
20260505095430 63 120 0.9 1.7 0.00 0.02 0.02 73 1010.4
20260505094926 63 148 1.7 3.5 0.00 0.02 0.02 74 1010.2
20260505094423 63 155 0.9 1.7 0.00 0.02 0.02 75 1010.3
20260505093920 63 108 0.9 1.7 0.00 0.02 0.02 75 1010.2
20260505093416 62 134 0.0 1.7 0.00 0.02 0.02 76 1010.2
20260505092913 62 126 0.9 2.6 0.00 0.02 0.02 78 1010.1
20260505092412 62 118 0.0 2.6 0.00 0.02 0.02 80 1010.1
20260505091909 61 107 0.0 1.7 0.00 0.02 0.02 81 1009.9
20260505091406 61 198 0.9 2.6 0.00 0.02 0.02 83 1010.0
20260505090904 60 89 1.7 2.6 0.00 0.02 0.02 86 1010.0
20260505090402 59 125 0.0 0.0 0.00 0.02 0.02 87 1010.1
20260505085859 59 72 0.0 0.9 0.00 0.02 0.02 88 1009.9
20260505085357 60 102 0.9 1.7 0.00 0.02 0.02 89 1009.8
20260505084855 59 143 0.9 1.7 0.00 0.02 0.02 90 1009.7
20260505084353 58 97 2.6 3.5 0.00 0.02 0.02 91 1010.0
20260505083850 57 88 1.7 2.6 0.00 0.02 0.02 92 1009.8
20260505083348 56 99 0.9 1.7 0.00 0.02 0.02 92 1009.8
20260505082844 56 89 0.0 0.9 0.00 0.02 0.02 93 1009.9
20260505082340 56 108 0.0 0.9 0.00 0.02 0.02 93 1009.9
20260505081837 56 80 0.0 0.0 0.00 0.02 0.02 92 1009.8
20260505081333 56 88 0.0 0.0 0.00 0.02 0.02 92 1009.8
20260505080830 56 98 0.0 0.0 0.00 0.02 0.02 92 1009.8
20260505080326 56 98 0.0 0.0 0.00 0.02 0.02 91 1009.6
20260505075822 56 101 0.0 0.0 0.00 0.02 0.02 91 1009.8
20260505075319 56 101 0.0 0.0 0.00 0.02 0.02 91 1009.6
20260505074816 56 101 0.0 0.0 0.00 0.02 0.02 90 1009.7
20260505074313 56 101 0.0 0.0 0.00 0.02 0.02 89 1009.6
20260505073811 57 101 0.0 0.0 0.00 0.02 0.02 89 1009.6
20260505073309 57 72 1.7 1.7 0.00 0.02 0.02 88 1009.4
20260505072805 57 24 0.0 0.9 0.00 0.02 0.02 87 1009.6
20260505072301 58 19 0.9 0.9 0.00 0.02 0.02 86 1009.4
20260505071756 59 21 0.9 1.7 0.00 0.02 0.02 85 1009.5
20260505071253 59 25 0.0 2.6 0.00 0.02 0.02 83 1009.5
20260505070751 59 344 0.9 2.6 0.00 0.02 0.02 82 1009.4
20260505070248 61 354 0.0 0.9 0.00 0.02 0.02 80 1009.5
20260505065743 62 93 0.0 1.7 0.12 0.02 0.02 78 1009.6
20260505065241 61 104 1.7 6.1 0.12 0.02 0.02 77 1009.6
20260505064737 63 73 0.0 1.7 0.00 0.00 0.00 71 1009.9
20260505064235 64 106 1.7 1.7 0.00 0.00 0.00 70 1010.2
20260505063732 64 125 1.7 3.5 0.00 0.00 0.00 70 1010.2
20260505063228 63 259 1.7 2.6 0.00 0.00 0.00 73 1010.2
20260505062724 62 270 0.9 1.7 0.00 0.00 0.00 74 1010.2
20260505062222 62 121 0.9 3.5 0.00 0.00 0.00 75 1010.0
20260505061720 61 62 0.0 0.0 0.00 0.00 0.00 76 1010.0
20260505061217 61 104 0.0 1.7 0.00 0.00 0.00 77 1009.8
20260505060714 61 88 0.9 2.6 0.00 0.00 0.00 78 1009.7
20260505060211 60 84 0.9 0.9 0.00 0.00 0.00 79 1009.6
20260505055707 60 101 0.0 0.9 0.00 0.00 0.00 79 1009.8
20260505055204 59 96 0.9 5.2 0.00 0.00 0.00 81 1009.7
20260505054701 58 79 0.0 0.0 0.00 0.00 0.00 82 1009.9
20260505054159 58 79 0.0 0.9 0.00 0.00 0.00 82 1009.8
20260505053656 58 82 0.9 0.9 0.00 0.00 0.00 83 1009.8
20260505053152 57 89 0.0 0.9 0.00 0.00 0.00 84 1009.9
20260505052649 57 121 0.0 0.0 0.00 0.00 0.00 84 1009.9
20260505052146 57 144 0.0 0.0 0.00 0.00 0.00 84 1009.9
20260505051643 57 144 0.0 0.0 0.00 0.00 0.00 83 1009.9
20260505051141 57 144 0.0 0.0 0.00 0.00 0.00 83 1009.7
20260505050639 58 134 0.0 0.0 0.00 0.00 0.00 83 1009.9
20260505050138 58 134 0.9 0.9 0.00 0.00 0.00 83 1010.0
20260505041612 58 107 0.0 0.0 0.00 0.00 0.00 82 1010.1
20260505041110 58 107 0.0 0.0 0.00 0.00 0.00 82 1009.8
20260505040607 57 107 0.0 0.0 0.00 0.00 0.00 82 1009.7
20260505040104 57 107 0.0 0.0 0.00 0.00 0.00 82 1009.9
20260505035600 57 109 0.0 0.0 0.00 0.00 0.00 82 1009.7
20260505035057 57 109 0.0 0.0 0.00 0.00 0.00 81 1010.0
20260505034553 57 109 0.0 0.0 0.00 0.00 0.00 81 1010.1
20260505034050 57 109 0.0 0.0 0.00 0.00 0.00 81 1009.8
20260505033547 56 109 0.0 0.0 0.00 0.00 0.00 80 1009.8
20260505033045 57 109 0.0 0.0 0.00 0.00 0.00 80 1009.9
20260505032543 57 109 0.0 0.0 0.00 0.00 0.00 79 1009.9
20260505032039 57 109 0.0 0.0 0.00 0.00 0.00 78 1010.1
20260505031537 57 109 0.0 0.0 0.00 0.00 0.00 77 1010.0
20260505031033 58 109 0.0 0.0 0.00 0.00 0.00 77 1009.9
20260505030530 58 109 0.0 0.0 0.00 0.00 0.00 77 1010.1
20260505030026 58 109 0.0 0.0 0.00 0.00 0.00 76 1010.0
20260505025522 59 106 0.0 0.0 0.00 0.00 0.00 75 1010.0
20260505025021 59 106 0.0 0.0 0.00 0.00 0.00 74 1010.0
20260505024517 60 106 0.0 0.0 0.00 0.00 0.00 73 1010.0
20260505024015 60 106 0.0 0.0 0.00 0.00 0.00 72 1010.1
20260505023511 61 106 0.0 0.0 0.00 0.00 0.00 71 1010.0
20260505023009 61 106 0.0 0.0 0.00 0.00 0.00 70 1009.9
20260505022507 62 107 0.0 0.0 0.00 0.00 0.00 69 1009.9
20260505022004 62 108 0.0 0.0 0.00 0.00 0.00 68 1009.9
20260505021500 62 108 0.0 0.0 0.00 0.00 0.00 67 1010.0
20260505020955 63 108 0.0 0.0 0.00 0.00 0.00 65 1009.9
20260505020451 64 108 0.0 0.0 0.00 0.00 0.00 64 1009.8
20260505015948 65 107 0.0 0.0 0.00 0.00 0.00 63 1009.9
20260505015445 65 139 0.0 0.9 0.00 0.00 0.00 62 1010.0
20260505014942 65 145 0.0 0.0 0.00 0.00 0.00 62 1009.9
20260505014439 65 147 0.0 0.0 0.00 0.00 0.00 62 1009.9
20260505013937 66 182 0.9 0.9 0.00 0.00 0.00 61 1009.9
20260505013433 66 140 0.9 3.5 0.00 0.00 0.00 60 1009.8
20260505012931 66 98 1.7 2.6 0.00 0.00 0.00 60 1009.8
20260505012429 67 100 1.7 2.6 0.00 0.00 0.00 59 1009.9
20260505011925 67 230 1.7 3.5 0.00 0.00 0.00 59 1009.8
20260505011421 67 140 1.7 2.6 0.00 0.00 0.00 58 1009.8
20260505010918 67 126 3.5 5.2 0.00 0.00 0.00 58 1009.6
20260505010414 67 242 2.6 5.2 0.00 0.00 0.00 58 1009.6
20260505005910 68 117 2.6 3.5 0.00 0.00 0.00 58 1009.5
20260505005407 68 132 1.7 3.5 0.00 0.00 0.00 58 1009.7
20260505004905 67 140 2.6 5.2 0.00 0.00 0.00 58 1009.7
20260505004401 67 66 0.9 2.6 0.00 0.00 0.00 59 1009.7
20260505003858 67 171 1.7 2.6 0.00 0.00 0.00 60 1009.6
20260505003355 67 121 0.9 1.7 0.00 0.00 0.00 60 1009.8
20260505002851 67 214 0.9 1.7 0.00 0.00 0.00 59 1009.6
20260505002348 67 118 1.7 2.6 0.00 0.00 0.00 59 1009.6
20260505001847 68 128 1.7 2.6 0.00 0.00 0.00 58 1009.6
20260505001343 68 226 1.7 1.7 0.00 0.00 0.00 57 1009.7
20260505000841 69 127 0.9 2.6 0.00 0.00 0.00 56 1009.7
20260505000338 69 233 2.6 3.5 0.00 0.00 0.00 55 1009.6
20260504235835 69 216 0.9 2.6 0.00 0.00 0.00 57 1009.5
20260504235332 70 149 0.9 3.5 0.00 0.00 0.00 55 1009.5
20260504234828 70 244 0.9 1.7 0.00 0.00 0.00 55 1009.4
20260504234326 70 237 1.7 2.6 0.00 0.00 0.00 56 1009.4
20260504233822 69 150 0.9 2.6 0.00 0.00 0.00 55 1009.4
20260504233318 70 177 0.9 2.6 0.00 0.00 0.00 55 1009.4
20260504232815 69 132 1.7 5.2 0.00 0.00 0.00 56 1009.6
20260504232312 69 194 1.7 3.5 0.00 0.00 0.00 55 1009.5
20260504231809 70 129 1.7 3.5 0.00 0.00 0.00 54 1009.5
20260504231306 70 85 1.7 2.6 0.00 0.00 0.00 54 1009.5
20260504230801 70 177 1.7 2.6 0.00 0.00 0.00 53 1009.5
20260504230300 70 223 0.9 2.6 0.00 0.00 0.00 54 1009.6
20260504225758 70 120 0.0 3.5 0.00 0.00 0.00 55 1009.7
20260504225254 71 211 1.7 2.6 0.00 0.00 0.00 54 1009.7
20260504224751 71 254 2.6 5.2 0.00 0.00 0.00 52 1009.4
20260504224248 72 176 1.7 6.1 0.00 0.00 0.00 51 1009.4
20260504223745 71 150 3.5 7.0 0.00 0.00 0.00 51 1010.0
20260504223240 71 225 3.5 7.0 0.00 0.00 0.00 52 1010.2
20260504222738 70 232 2.6 9.6 0.00 0.00 0.00 52 1010.2
20260504222234 71 281 4.3 7.0 0.00 0.00 0.00 53 1009.8
20260504221732 71 171 3.5 5.2 0.00 0.00 0.00 52 1009.7
20260504221229 71 171 0.9 3.5 0.00 0.00 0.00 52 1009.9
20260504220725 73 177 4.3 7.8 0.00 0.00 0.00 50 1009.8
20260504220223 74 90 1.7 2.6 0.00 0.00 0.00 49 1010.2
20260504215720 73 229 3.5 7.8 0.00 0.00 0.00 51 1010.0
20260504215217 72 262 1.7 6.1 0.00 0.00 0.00 51 1009.8
20260504214712 73 189 3.5 11.3 0.00 0.00 0.00 50 1009.9
20260504214209 74 190 3.5 6.1 0.00 0.00 0.00 48 1009.9
20260504213706 74 181 1.7 7.8 0.00 0.00 0.00 48 1009.8
20260504213202 74 223 1.7 3.5 0.00 0.00 0.00 49 1009.6
20260504212659 73 180 3.5 8.7 0.00 0.00 0.00 48 1009.5
20260504212155 72 233 2.6 7.8 0.00 0.00 0.00 49 1009.6
20260504211653 73 148 5.2 8.7 0.00 0.00 0.00 49 1009.4
20260504211149 74 188 3.5 7.0 0.00 0.00 0.00 48 1009.5
20260504210647 75 228 3.5 7.0 0.00 0.00 0.00 47 1009.2
20260504210143 74 179 3.5 6.1 0.00 0.00 0.00 48 1009.3
20260504205641 75 97 4.3 7.8 0.00 0.00 0.00 46 1009.3
20260504205138 75 312 5.2 8.7 0.00 0.00 0.00 46 1009.3
20260504204637 74 86 2.6 7.0 0.00 0.00 0.00 46 1009.4
20260504204135 75 278 3.5 7.0 0.00 0.00 0.00 46 1009.4
20260504203633 75 323 2.6 7.0 0.00 0.00 0.00 48 1009.2
20260504203131 74 192 2.6 5.2 0.00 0.00 0.00 48 1009.4
20260504202631 74 200 1.7 9.6 0.00 0.00 0.00 47 1009.4
20260504202128 73 181 1.7 7.8 0.00 0.00 0.00 48 1009.7
20260504201625 74 127 0.0 3.5 0.00 0.00 0.00 49 1009.6
20260504201123 73 289 3.5 5.2 0.00 0.00 0.00 50 1009.5
20260504200620 73 192 2.6 6.1 0.00 0.00 0.00 49 1009.7
20260504200116 73 195 1.7 2.6 0.00 0.00 0.00 49 1009.7
20260504195612 73 209 4.3 6.1 0.00 0.00 0.00 48 1010.0
20260504195108 74 238 3.5 3.5 0.00 0.00 0.00 47 1009.9
20260504194605 75 104 3.5 7.8 0.00 0.00 0.00 48 1009.9
20260504194101 74 224 2.6 12.2 0.00 0.00 0.00 48 1009.9
20260504193558 72 82 1.7 6.1 0.00 0.00 0.00 50 1010.0
20260504193057 73 136 3.5 7.0 0.00 0.00 0.00 49 1009.9
20260504192555 74 187 4.3 7.0 0.00 0.00 0.00 48 1010.1
20260504192052 74 231 5.2 6.1 0.00 0.00 0.00 48 1010.1
20260504191550 74 190 5.2 8.7 0.00 0.00 0.00 49 1010.1
20260504191045 73 57 1.7 7.0 0.00 0.00 0.00 49 1010.0
20260504190542 73 246 6.1 8.7 0.00 0.00 0.00 48 1010.2
20260504190038 73 209 1.7 3.5 0.00 0.00 0.00 50 1010.2
20260504185535 73 222 4.3 7.8 0.00 0.00 0.00 49 1010.3
20260504185032 72 144 4.3 7.8 0.00 0.00 0.00 50 1010.3
20260504184527 72 190 2.6 6.1 0.00 0.00 0.00 51 1010.5
20260504184023 71 153 2.6 6.1 0.00 0.00 0.00 51 1010.5
20260504183520 71 167 4.3 6.1 0.00 0.00 0.00 51 1010.5
20260504183018 72 197 3.5 6.1 0.00 0.00 0.00 51 1010.4
20260504182515 71 113 3.5 7.8 0.00 0.00 0.00 50 1010.5
20260504182012 71 154 3.5 6.1 0.00 0.00 0.00 51 1010.6
20260504181509 71 153 2.6 9.6 0.00 0.00 0.00 51 1010.7
20260504181008 70 116 3.5 5.2 0.00 0.00 0.00 52 1010.8
20260504180506 71 171 7.8 9.6 0.00 0.00 0.00 51 1010.9
20260504180004 71 195 1.7 6.1 0.00 0.00 0.00 52 1010.9
20260504175501 71 173 4.3 8.7 0.00 0.00 0.00 51 1011.0
20260504174958 70 124 2.6 6.1 0.00 0.00 0.00 54 1010.9
20260504174456 70 74 1.7 8.7 0.00 0.00 0.00 52 1011.0
20260504173953 70 54 3.5 7.8 0.00 0.00 0.00 52 1011.0
20260504173449 70 188 3.5 6.1 0.00 0.00 0.00 54 1011.1
20260504172947 69 114 5.2 7.8 0.00 0.00 0.00 52 1011.1
20260504172442 69 259 2.6 6.1 0.00 0.00 0.00 54 1011.3
20260504171939 70 271 0.9 6.1 0.00 0.00 0.00 54 1011.3
20260504171437 69 280 2.6 5.2 0.00 0.00 0.00 53 1011.4
20260504170934 69 143 4.3 6.1 0.00 0.00 0.00 52 1011.4
20260504170430 69 198 3.5 7.0 0.00 0.00 0.00 51 1011.4
20260504160349 68 68 1.7 7.0 0.00 0.00 0.00 51 1012.1
20260504150813 66 127 4.3 7.0 0.00 0.00 0.00 50 1013.1
20260504150310 65 99 3.5 5.2 0.00 0.00 0.00 50 1013.1
20260504141240 62 107 3.5 6.1 0.00 0.00 0.00 53 1013.6
20260504140736 62 163 3.5 7.0 0.00 0.00 0.00 54 1013.4
20260504140232 61 175 3.5 7.0 0.00 0.00 0.00 54 1013.6
20260504130701 59 115 4.3 7.0 0.00 0.00 0.00 56 1013.5
20260504130157 58 130 2.6 6.1 0.00 0.00 0.00 56 1013.8
20260504120121 55 179 3.5 3.5 0.00 0.00 0.00 60 1013.6